Tracking 30995 objects as of 5-Jul-2025
HD Live streaming from Space Station
objects crossing your sky now

COSMOS 374 DEB

Track COSMOS 374 DEB now!
10-day predictions


NORAD ID: 4617
Int'l Code: 1970-089D
Perigee: 553.2 km
Apogee: 990.7 km
Inclination: 62.9 °
Period: 100.1 minutes
Semi major axis: 7142 km
RCS: 0.3477 m2 (medium)
Launch date: October 23, 1970
Source: Commonwealth of Independent States (former USSR) (CIS)
Launch site: TYURATAM MISSILE AND SPACE COMPLEX (TTMTR)

Note: This is SATELLITE DEBRIS
Your satellite tracking list
Your tracking list is empty




NASA's NSSDC Master Catalog

Two Line Element Set (TLE):
1 04617U 70089D   25186.59415228  .00001366  00000-0  29061-3 0  9997
2 04617  62.9435 349.4772 0306262 288.6121  68.1918 14.38101678718066
Source of the keplerian elements: AFSPC